This is the latest recevied weather packets stored in our database for station/object AB0TJ. If no packets are shown the sender has not sent any weather packets the latest 10 day(s).
| Time | Temp. | Humidity | Pressure | Rain* | Wind** | Luminosity | Snow |
|---|---|---|---|---|---|---|---|
| 1777568525 | 17.78° C | 27% | 1016.4 hPa | 0 mm | - | 668 W/m² | - |
| 1777568037 | 17.22° C | 28% | 1016.2 hPa | 0 mm | - | 651 W/m² | - |
| 1777567539 | 17.22° C | 27% | 1016.4 hPa | 0 mm | - | 627 W/m² | - |
| 1777566949 | 16.67° C | 27% | 1016.5 hPa | 0 mm | - | 608 W/m² | - |
| 1777566396 | 17.22° C | 29% | 1016.5 hPa | 0 mm | - | 581 W/m² | - |
| 1777565841 | 17.22° C | 29% | 1016.7 hPa | 0 mm | - | 556 W/m² | - |
| 1777565359 | 17.22° C | 29% | 1016.7 hPa | 0 mm | - | 533 W/m² | - |
| 1777564844 | 16.11° C | 30% | 1016.6 hPa | 0 mm | - | 513 W/m² | - |
| 1777564364 | 15.56° C | 31% | 1016.7 hPa | 0 mm | - | 488 W/m² | - |
| 1777563809 | 15.56° C | 32% | 1016.9 hPa | 0 mm | - | 458 W/m² | - |
| 1777563213 | 15° C | 34% | 1017 hPa | 0 mm | - | 426 W/m² | - |
| 1777562704 | 14.44° C | 33% | 1017 hPa | 0 mm | - | 402 W/m² | - |
| 1777562123 | 13.89° C | 34% | 1017.2 hPa | 0 mm | - | 369 W/m² | - |
| 1777561529 | 12.78° C | 37% | 1017.1 hPa | 0 mm | - | 338 W/m² | - |
| 1777560933 | 11.67° C | 40% | 1017.3 hPa | 0 mm | - | 302 W/m² | - |
| 1777560339 | 10.56° C | 41% | 1017.2 hPa | 0 mm | - | 265 W/m² | - |
| 1777559764 | 10° C | 43% | 1017.4 hPa | 0 mm | - | 236 W/m² | - |
| 1777559189 | 9.44° C | 47% | 1017.3 hPa | 0 mm | - | 201 W/m² | - |
| 1777558699 | 8.89° C | 49% | 1017.3 hPa | 0 mm | - | 174 W/m² | - |
| 1777558173 | 8.33° C | 52% | 1017.3 hPa | 0 mm | - | 143 W/m² | - |
| 1777557619 | 7.22° C | 52% | 1017.3 hPa | 0 mm | - | 120 W/m² | - |
| 1777557044 | 6.11° C | 55% | 1017.3 hPa | 0 mm | - | 94 W/m² | - |
| 1777556549 | 5.56° C | 60% | 1017.1 hPa | 0 mm | - | 75 W/m² | - |
| 1777556004 | 4.44° C | 62% | 1017.1 hPa | 0 mm | - | 52 W/m² | - |
| 1777555484 | 3.89° C | 65% | 1017 hPa | 0 mm | - | 34 W/m² | - |
* Rain latest hour (hover to see other rain measurements)
** Current wind speed in m/s (hover to see current wind gust speed)